This demonstration page uses our WeatherBlox Daily Observations layout. Learn more.

Left ArrowRight Arrow

44.89941, -97.11507

Hourly Observations for August 29, 2016

Temp ( °F °C ) Dew Point ( °F °C ) Humidity (%) Winds ( mph kmh ) Pressure ( in mb ) Visibility ( mi km ) Precip ( " mm )
12:53 am 00:53 Clear 74 23.3 70 21.1 88 88 S 10 17 30.02 1017 10 16 0.00 0.00
1:53 am 01:53 Clear 73 22.8 70 21.1 90 90 S 10 17 30.03 1017 10 16 0.00 0.00
2:53 am 02:53 Clear 73 22.8 70 21.1 90 90 S 9 15 30.03 1017 10 16 0.00 0.00
3:53 am 03:53 Clear 71 21.7 68 20 90 90 S 9 15 30.04 1017 10 16 0.00 0.00
4:53 am 04:53 Clear 70 21.1 67 19.4 90 90 S 9 15 30.05 1018 10 16 0.00 0.00
5:53 am 05:53 Clear 70 21.1 67 19.4 90 90 S 12 19 30.05 1018 10 16 0.00 0.00
6:53 am 06:53 Sunny 69 20.6 67 19.4 93 93 S 9 15 30.05 1018 10 16 0.00 0.00
7:53 am 07:53 Sunny 70 21.1 68 20 93 93 SSW 9 15 30.08 1019 10 16 0.00 0.00
8:53 am 08:53 Sunny 73 22.8 68 20 84 84 SSW 8 13 30.09 1019 10 16 0.00 0.00
9:53 am 09:53 Partly Cloudy 76 24.4 70 21.1 82 82 ENE 10 17 30.13 1020 10 16 0.00 0.00
10:53 am 10:53 Partly Cloudy 80 26.7 70 21.1 71 71 SSE 8 13 30.14 1021 10 16 0.00 0.00
11:53 am 11:53 Partly Cloudy 81 27.2 70 21.1 69 69 SSE 12 19 30.14 1021 10 16 0.00 0.00
12:06 pm 12:06 Mostly Cloudy 82 27.8 70 21.1 67 67 SSE 16 26 30.06 1018 10 16 0.00 0.00
12:25 pm 12:25 Partly Cloudy 82 27.8 71 21.7 69 69 S 17 28 30.03 1017 10 16 0.00 0.00
12:53 pm 12:53 Sunny 83 28.3 71 21.7 67 67 S 16 26 30.11 1020 10 16 0.00 0.00
1:53 pm 13:53 Sunny 85 29.4 71 21.7 63 63 S 12 19 30.11 1020 10 16 0.00 0.00
2:53 pm 14:53 Sunny 88 31.1 69 20.6 54 54 SSW 14 22 30.10 1019 10 16 0.00 0.00
3:53 pm 15:53 Mostly Sunny 88 31.1 69 20.6 54 54 SSW 14 22 30.10 1019 10 16 0.00 0.00
4:53 pm 16:53 Mostly Sunny 86 30 67 19.4 53 53 SSW 10 17 30.11 1020 10 16 0.00 0.00
5:53 pm 17:53 Mostly Cloudy 85 29.4 70 21.1 61 61 S 7 11 30.10 1019 10 16 0.00 0.00
6:53 pm 18:53 Sunny 83 28.3 70 21.1 65 65 SSW 6 9 30.09 1019 10 16 0.00 0.00
7:01 pm 19:01 Sunny with Nearby Thunderstorms 82 27.8 71 21.7 69 69 Calm 30.00 1016 10 16 0.00 0.00
7:34 pm 19:34 Partly Cloudy with Thunderstorms 81 27.2 71 21.7 72 72 SSE 3 6 30.03 1017 10 16 0.00 0.00
7:53 pm 19:53 Mostly Cloudy with Thunderstorms 76 24.4 64 17.8 67 67 NNE 15 24 30.13 1020 10 16 0.00 0.00
8:53 pm 20:53 Mostly Cloudy with Thunderstorms 70 21.1 60 15.6 71 71 NE 3 6 30.16 1021 10 16 0.00 0.03
9:09 pm 21:09 Mostly Cloudy with Nearby Thunderstorms 70 21.1 61 16.1 73 73 Calm 30.12 1020 10 16 0.01 0.25
9:30 pm 21:30 Mostly Cloudy 70 21.1 63 17.2 79 79 Calm 30.12 1020 10 16 0.01 0.25
9:53 pm 21:53 Clear 71 21.7 63 17.2 76 76 Calm 30.14 1021 10 16 0.01 0.25
10:53 pm 22:53 Clear 69 20.6 64 17.8 84 84 NNW 5 7 30.17 1022 10 16 0.00 0.00
11:53 pm 23:53 Cloudy 70 21.1 66 18.9 87 87 Calm 30.18 1022 10 16 0.00 0.00

Powered by AerisWeather